EHI
0 0 0 0 0 0 0 0 0 0 0 0 0 0 0 0 0 0 0 0 0 0 0 0 0 0 0 0 0 0 0 0 0 0 0 0 0 0 0 0 0 0 0
0 0 0 0 0 0 0 0 0 0 0 0 0 0 0 0 0 0 0 0 0 0 0 0 0 0 0 0 0 0 0 0 0 0 0 0 0 0 0 0 0 0 0
0 0 0 0 0 0 0 0 0 0 0 0 0 0 0 0 0 0 0 0 0 0 0 0 0 0 0 0 0 0 0 0 0 0 0 0 0 0 0 0 0 0 0
0 0 0 0 0 0 0 0 0 0 0 0 0 0 0 0 0 0 0 0 0 0 0 0 0 0 0 0 0 0 0 0 0 0 0 0 0 0 0 0 0 0 0
0 0 0 0 0 0 0 0 0 0 0 0 0 0 0 0 0 0 0 0 0 0 0 0 0 0 0 0 0 0 0 0 0 0 0 0 0 0 0 0 0 0 0
0 0 0 0 0 0 0 0 0 0 0 0 0 0 0 0 0 0 0 0 0 0 0 0 0 0 0 0 0 0 0 0 0 0 0 0 0 0 0 0 0 0 0
0 0 0 0 0 0 0 0 0 0 0 0 0 0 0 0 0 0 0 0 0 0 0 0 0 0 0 0 0 0 0 0 0 0 0 0 0 0 0 0 0 0 0
0 0 0 0 0 0 0 0 0 0 0 0 0 0 0 0 0 0 0 0 0 0 0 0 0 0 0 0 0 0 0 0 0 0 0 0 0 0 0 0 0 0 0
0 0 0 0 0 0 0 0 0 0 0 0 0 0 0 0 0 0 0 0 0 0 0 0 0 0 0 0 0 0 0 0 0 0 0 0 0 0 0 0 0 0 0
0 0 0 0 0 0 0 0 0 0 0 0 0 0 0 0 0 0 0 0 0 0 0 0 0 0 0 0 0 0 0 0 0 0 0 0 0 0 0 0 0 0 0
0 0 0 0 0 0 0 0 0 0 0 0 0 0 0 0 0 0 0 0 0 0 0 0 0 0 0 0 0 0 0 0 0 0 0 0 0 0 0 0 0 0 0
0 0 0 0 0 0 0 0 0 0 0 0 0 0 0 0 0 0 0 0 0 0 0 0 0 0 0 0 0 0 0 0 0 0 0 0 0 0 0 0 0 0 0
0 0 0 0 0 0 0 0 0 0 0 0 0 0 0 0 0 0 0 0 0 0 0 0 0 0 0 0 0 0 0 0 0 0 0 0 0 0 0 0 0 0 0
0 0 0 0 0 0 0 0 0 0 0 0 0 0 0 0 0 0 0 0 0 0 0 0 0 0 0 0 0 0 0 0 0 0 0 0 0 0 0 0 0 0 0
0 0 0 0 0 0 0 0 0 0 0 0 0 0 0 0 0 0 0 0 0 0 0 0 0 0 0 0 0 0 0 0 0 0 0 0 0 0 0 0 0 0 0
0 0 0 0 0 0 0 0 0 0 0 0 0 0 0 0 0 0 0 0 0 0 0 0 0 0 0 0 0 0 0 0 0 0 0 0 0 0 0 0 0 0 0
0 0 0 0 0 0 0 0 0 0 0 0 0 0 0 0 0 0 0 0 0 0 0 0 0 0 0 0 0 0 0 0 0 0 0 0 0 0 0 0 0 0 0
0 0 0 0 0 0 0 0 0 0 0 0 0 0 0 0 0 0 0 0 0 0 0 0 0 0 0 0 0 0 0 0 0 0 0 0 0 0 0 0 0 0 0
0 0 0 0 0 0 0 0 0 0 0 0 0 0 0 0 0 0 0 0 0 0 0 0 0 0 0 0 0 0 0 0 0 0 0 0 0 0 0 0 0 0 0
0 0 0 0 0 0 0 0 0 0 0 0 0 0 0 0 0 0 0 0 0 0 0 0 0 0 0 0 0 0 0 0 0 0 0 0 0 0 0 0 0 0 0
0 0 0 0 0 0 0 0 0 0 0 0 0 0 0 0 0 0 0 0 0 0 0 0 0 0 0 0 0 0 0 0 0 0 0 0 0 0 0 0 0 0 0
0 0 0 0 0 0 0 0 0 0 0 0 0 0 0 0 0 0 0 0 0 0 0 0 0 0 0 0 0 0 0 0 0 0 0 0 0 0 0 0 0 0 0
0 0 0 0 0 0 0 0 0 0 0 0 0 0 0 0 0 0 0 0 0 0 0 0 0 0 0 0 0 0 0 0 0 0 0 0 0 0 0 0 0 0 0
0 0 0 0 0 0 0 0 0 0 0 0 0 0 0 0 0 0 0 0 0 0 0 0 0 0 0 0 0 0 0 0 0 0 0 0 0 0 0 0 0 0 0
0 0 0 0 0 0 0 0 0 0 0 0 0 0 0 0 0 0 0 0 0 0 0 0 0 0 0 0 0 0 0 0 0 0 0 0 0 0 0 0 0 0 0
0 0 0 0 0 0 0 0 0 0 0 0 0 0 0 0 0 0 0 0 0 0 0 0 0 0 0 0 0 0 0 0 0 0 0 0 0 0 0 0 0 0 0
Wind_Speed
10 14 15 15 14 12 12 11 12 12 12 12 12 11 11 11 11 12 12 12 13 13 14 15 15 15 16 15 16 16 16 17 17 17 17 18 17 18 18 17 15 13 17
14 15 16 16 14 13 13 12 13 12 12 12 11 11 11 11 11 12 12 12 12 13 13 14 14 15 14 15 15 15 16 16 16 15 14 15 17 17 17 17 16 12 16
16 16 17 16 15 14 14 13 13 12 12 12 11 11 11 10 11 11 11 12 12 13 13 13 13 14 14 14 15 14 15 14 14 13 11 10 12 15 15 15 15 16 16
16 15 16 17 15 15 14 13 13 12 12 11 11 11 10 10 10 11 11 12 12 12 12 12 13 13 14 13 13 13 13 13 12 9 8 9 10 13 14 14 14 14 14
16 14 15 17 16 15 14 14 13 13 12 12 11 11 10 10 10 10 11 11 11 11 12 12 12 12 12 12 13 13 12 11 9 8 8 8 8 12 12 12 12 12 12
16 14 16 17 16 15 14 14 14 13 12 11 11 10 10 10 10 10 10 10 10 10 11 11 11 11 11 11 11 12 11 10 6 8 7 7 8 10 10 10 10 10 10
15 14 16 17 16 15 15 15 14 13 12 11 10 10 10 10 9 9 9 9 9 9 9 10 10 10 9 10 10 10 10 8 7 7 6 6 8 9 9 9 8 8 8
14 14 15 17 15 15 15 15 14 13 12 11 10 10 10 9 9 9 8 8 8 8 8 8 8 8 8 8 9 9 8 6 5 5 5 6 8 8 8 7 7 6 6
13 13 13 15 15 15 14 14 13 12 12 11 10 10 9 9 8 8 7 6 6 6 6 6 6 6 7 7 7 7 6 4 4 4 4 4 7 8 7 6 6 6 6
13 13 13 14 14 14 13 13 13 12 12 11 10 9 9 8 8 8 6 5 5 4 4 4 4 4 5 5 5 5 2 4 4 3 3 4 7 8 8 8 7 7 7
12 13 13 13 13 12 12 12 13 12 11 11 10 10 8 6 6 6 5 4 3 3 2 2 2 3 1 2 2 2 3 2 3 3 3 5 8 9 9 9 9 9 9
16 15 13 13 13 12 9 10 9 9 9 9 8 9 6 5 4 3 6 5 3 2 2 1 1 2 3 1 2 4 2 3 3 2 2 4 8 10 10 10 10 11 11
15 14 14 13 13 12 9 8 6 6 6 8 8 8 6 5 4 3 3 4 4 4 3 3 4 2 2 2 3 3 4 4 3 3 2 3 8 10 11 11 11 12 12
14 15 15 14 13 13 11 9 8 7 6 6 7 8 6 4 4 3 3 3 3 2 3 3 3 3 4 4 5 5 5 4 4 4 3 4 8 10 12 12 12 12 13
14 15 15 15 14 13 11 8 8 8 7 7 7 7 7 5 5 4 3 3 4 3 3 3 4 4 4 5 5 6 6 6 6 6 4 4 7 10 11 12 12 12 12
14 15 15 16 16 14 11 10 9 8 7 8 7 8 8 6 5 5 5 4 4 3 3 4 5 4 4 4 6 6 7 7 7 7 6 5 5 7 9 10 10 10 11
14 14 15 15 16 16 14 12 9 8 8 7 7 8 8 7 6 5 5 4 4 3 4 4 4 4 4 5 6 6 6 7 8 8 7 6 4 3 4 7 7 8 9
12 14 14 12 15 16 14 12 9 8 8 7 6 7 8 8 7 5 4 4 4 3 3 3 3 4 4 5 5 5 6 6 8 7 6 5 4 3 1 2 5 7 8
13 13 14 15 16 16 14 11 10 8 8 6 6 6 7 8 7 6 4 4 4 3 3 3 3 4 4 4 5 6 6 6 6 5 5 4 2 2 2 1 2 5 8
12 13 14 15 15 15 12 9 8 7 6 5 5 6 7 6 6 6 4 4 3 3 3 3 3 3 3 4 5 6 6 5 4 4 3 2 2 2 2 3 3 3 6
12 13 14 15 15 13 11 10 9 8 7 5 5 6 7 6 6 5 4 4 3 3 3 3 3 3 2 3 4 5 4 3 3 2 2 2 2 3 3 4 5 6 5
13 13 14 15 16 15 12 10 8 8 5 5 5 5 6 6 6 5 5 4 4 3 3 3 2 2 1 1 3 4 4 2 1 2 3 3 4 4 4 6 7 7 8
13 14 13 15 16 15 14 9 8 6 5 5 6 5 6 6 6 6 5 4 4 3 3 3 2 3 2 1 2 3 3 4 5 3 4 5 5 5 6 7 8 9 9
12 11 13 14 15 15 14 13 14 10 9 8 7 6 7 7 6 6 6 5 4 3 3 3 2 2 3 2 1 2 4 4 4 5 4 4 6 7 9 8 8 9 9
11 11 12 13 14 15 15 15 15 12 9 7 8 9 8 7 6 6 6 5 5 3 3 3 3 2 2 3 2 2 4 4 6 5 7 7 6 6 7 8 8 8 8
10 11 11 13 14 14 14 14 14 13 12 12 11 10 8 6 6 7 6 5 5 4 4 3 3 3 3 3 3 3 4 4 4 5 8 9 9 7 8 7 7 7 7
Wind_Direction
165 163 165 164 161 157 150 138 127 120 115 109 101 95 90 83 78 74 70 66 63 61 61 61 61 62 60 58 58 58 57 55 52 51 50 51 54 54 52 46 45 49 46
157 160 164 164 163 159 150 138 129 122 117 111 106 101 95 88 82 77 74 69 66 64 64 64 62 62 61 61 60 60 59 57 53 51 50 53 52 52 51 49 47 49 49
154 158 163 165 162 157 150 141 134 127 122 117 111 106 99 93 86 81 76 73 70 67 65 65 64 63 62 62 61 60 60 57 54 51 51 50 54 51 50 49 48 47 47
156 160 162 161 161 157 152 145 139 134 130 125 118 111 104 97 90 85 80 77 73 69 67 66 65 63 62 61 61 60 59 55 51 46 51 47 50 51 50 48 48 47 46
159 162 156 163 163 159 156 151 143 139 134 130 124 118 110 103 95 89 83 79 76 73 70 68 65 64 62 62 61 60 57 51 48 51 51 44 46 46 48 46 44 44 43
161 163 157 167 166 164 160 154 147 145 140 137 130 125 117 108 101 93 88 84 80 77 74 72 68 64 62 62 61 59 55 44 46 52 46 37 38 36 42 42 40 39 39
162 163 161 171 171 167 162 156 152 150 148 144 138 132 123 115 107 101 96 90 84 80 77 74 70 67 62 60 60 60 55 39 43 51 41 37 28 19 31 34 31 30 31
163 165 162 172 172 170 167 161 158 157 154 151 146 139 131 124 118 111 104 97 90 84 79 75 71 67 64 61 59 58 51 24 45 45 38 34 17 3 15 18 14 12 14
167 169 168 172 174 174 171 166 164 162 160 157 154 147 139 133 130 123 114 108 100 93 85 79 74 69 64 58 55 52 49 10 10 36 24 22 358 348 356 357 353 350 349
173 177 175 176 177 176 174 170 166 167 167 163 158 147 142 145 144 136 138 125 120 115 103 91 82 73 64 54 45 41 26 270 21 20 13 15 340 335 338 339 336 332 328
182 184 183 181 180 179 177 169 170 172 169 167 160 148 158 165 154 157 139 150 157 143 126 115 84 77 89 115 74 14 264 334 0 351 356 359 327 326 326 326 325 321 318
187 188 187 186 183 181 177 175 180 180 175 182 174 172 176 171 162 162 151 185 194 195 196 162 128 190 252 277 155 225 293 326 320 332 357 338 320 320 320 320 318 315 311
187 187 190 189 187 184 181 182 181 180 177 184 182 179 179 176 175 189 186 188 201 210 220 204 224 257 290 309 306 302 315 312 308 314 324 325 311 314 315 314 312 310 308
189 190 192 191 190 191 188 187 185 183 182 183 184 188 186 184 193 201 213 212 218 219 234 246 261 263 272 279 287 296 295 294 299 305 317 309 305 308 309 309 309 308 307
194 192 194 194 193 192 192 191 192 188 187 186 186 193 193 192 196 203 215 219 230 237 236 246 258 266 269 279 283 287 291 292 292 295 292 280 295 303 306 308 309 310 310
198 194 193 196 196 193 194 194 194 191 190 192 190 194 195 197 201 208 217 222 231 235 245 256 264 272 279 282 284 286 288 291 290 293 295 288 270 293 306 310 312 314 315
200 195 193 195 196 196 197 197 195 193 191 193 193 195 197 201 205 210 217 221 227 232 241 256 263 271 277 278 280 287 288 289 291 291 293 294 292 272 305 318 322 326 329
200 195 192 190 196 196 196 196 195 194 193 193 192 195 198 203 206 209 215 222 223 223 232 244 258 263 268 276 287 291 287 289 288 294 290 288 292 299 273 0 343 343 340
202 195 191 190 193 193 193 193 192 190 193 189 188 190 193 201 203 208 216 221 213 212 223 234 252 271 282 289 291 291 289 289 293 290 286 289 286 290 304 99 321 333 335
200 195 191 189 189 187 186 187 184 184 186 184 183 186 189 193 197 203 204 207 201 207 218 231 250 266 289 302 297 290 289 292 286 282 279 260 247 272 292 308 301 306 313
192 191 189 186 184 182 180 182 181 182 179 176 175 177 181 181 186 189 189 190 198 212 222 233 248 256 272 312 297 295 282 265 280 270 273 272 263 276 288 299 310 315 309
188 186 185 185 181 182 182 180 181 172 169 163 161 166 172 174 174 177 185 181 185 196 206 213 227 258 265 297 305 308 307 266 193 269 283 282 287 285 284 296 308 309 308
188 185 182 181 180 181 177 167 152 144 144 158 165 162 167 168 167 170 178 177 176 188 194 198 212 241 263 251 291 303 308 313 322 275 277 284 288 288 294 301 303 304 303
187 180 179 177 178 178 175 174 172 175 176 178 169 160 157 162 161 165 167 166 167 175 179 183 212 239 259 262 249 260 279 296 293 302 280 273 286 293 295 298 300 301 299
178 176 176 174 176 177 180 180 181 182 174 160 157 156 155 155 158 161 162 162 165 170 174 178 197 220 246 265 268 266 264 265 260 273 290 298 293 284 289 294 294 293 296
171 171 173 173 174 176 180 181 185 177 166 160 164 162 161 157 160 164 165 166 168 167 172 183 200 218 239 251 257 257 262 265 270 268 280 294 298 300 298 289 285 286 292